Retour au catalogue

SL-8 R/B

ActifLEO
NORAD 6320·ROCKET BODY·🇷🇺 Russia

Lancé Dec 21, 1972 depuis Plesetsk Cosmodrome

Loading…

Prochains Passages (prochaines 24 heures)

TLE

FraisSource: Space-Track

Époque: Sep 14, 2026, 09:55 UTC

1 06320U 72102B   26257.41384970  .00000060  00000-0  35559-3 0  9997
2 06320  74.0129  63.7632 0024562 217.9828 165.0240 12.77036864504594

Suivez SL-8 R/B en temps réel avec AllMySat

Download on the App Store